Stündliche Wetter Holodnaya

Heute, 22 Juni, Dienstag

Zeit Temperatur Niederschläge Wind Luftdruck Luftfeuchtigkeit
00:00 +15°C° 0 mm 1 m/S 713 mmHg 80%
01:00 +14°C° 0 mm 1 m/S 714 mmHg 91%
02:00 +14°C° 0.1 mm 1 m/S 714 mmHg 92%
03:00 +14°C° 0.1 mm 1 m/S 714 mmHg 93%
04:00 +15°C° 0.1 mm 1 m/S 714 mmHg 95%
05:00 +15°C° 0.1 mm 2 m/S 714 mmHg 94%
06:00 +15°C° 0.1 mm 2 m/S 715 mmHg 94%
07:00 +16°C° 0 mm 2 m/S 715 mmHg 93%
08:00 +16°C° 0 mm 3 m/S 715 mmHg 91%
09:00 +16°C° 0 mm 3 m/S 715 mmHg 90%
10:00 +16°C° 0 mm 3 m/S 715 mmHg 88%
11:00 +16°C° 0 mm 3 m/S 715 mmHg 83%
12:00 +17°C° 0 mm 3 m/S 715 mmHg 79%
13:00 +17°C° 0 mm 4 m/S 715 mmHg 71%
14:00 +18°C° 0 mm 4 m/S 715 mmHg 69%
15:00 +18°C° 0 mm 4 m/S 715 mmHg 67%
16:00 +18°C° 0 mm 4 m/S 714 mmHg 66%
17:00 +17°C° 0 mm 3 m/S 715 mmHg 70%
18:00 +16°C° 0 mm 3 m/S 715 mmHg 75%
19:00 +15°C° 0 mm 2 m/S 715 mmHg 79%
20:00 +14°C° 0 mm 2 m/S 715 mmHg 83%
21:00 +13°C° 0 mm 2 m/S 715 mmHg 87%
22:00 +12°C° 0 mm 1 m/S 715 mmHg 91%
23:00 +12°C° 0 mm 1 m/S 715 mmHg 91%

Morgen, 23 Juni, Mittwoch

Zeit Temperatur Niederschläge Wind Luftdruck Luftfeuchtigkeit
00:00 +12°C° 0 mm 1 m/S 715 mmHg 92%
01:00 +12°C° 0 mm 1 m/S 715 mmHg 92%
02:00 +12°C° 0 mm 1 m/S 715 mmHg 93%
03:00 +11°C° 0 mm 1 m/S 715 mmHg 93%
04:00 +11°C° 0 mm 1 m/S 715 mmHg 94%
05:00 +13°C° 0 mm 1 m/S 715 mmHg 85%
06:00 +16°C° 0 mm 1 m/S 715 mmHg 76%
07:00 +17°C° 0 mm 0 m/S 715 mmHg 68%
08:00 +21°C° 0 mm 1 m/S 715 mmHg 62%
09:00 +23°C° 0 mm 2 m/S 714 mmHg 57%
10:00 +25°C° 0 mm 2 m/S 714 mmHg 52%
11:00 +25°C° 0 mm 2 m/S 714 mmHg 50%
12:00 +26°C° 0 mm 2 m/S 714 mmHg 48%
13:00 +27°C° 0 mm 3 m/S 713 mmHg 46%
14:00 +27°C° 0 mm 3 m/S 713 mmHg 47%
15:00 +27°C° 0 mm 3 m/S 712 mmHg 48%
16:00 +27°C° 0 mm 3 m/S 712 mmHg 48%
17:00 +24°C° 1.2 mm 2 m/S 712 mmHg 63%
18:00 +21°C° 1.2 mm 2 m/S 712 mmHg 77%
19:00 +18°C° 1.2 mm 2 m/S 713 mmHg 92%
20:00 +18°C° 0.3 mm 2 m/S 712 mmHg 93%
21:00 +17°C° 0.3 mm 2 m/S 712 mmHg 93%
22:00 +16°C° 0.3 mm 2 m/S 712 mmHg 94%
23:00 +16°C° 0 mm 1 m/S 712 mmHg 94%

übermorgen, 24 Juni, Donnerstag

Zeit Temperatur Niederschläge Wind Luftdruck Luftfeuchtigkeit
00:00 +16°C° 0 mm 1 m/S 711 mmHg 94%
01:00 +16°C° 0 mm 1 m/S 711 mmHg 93%
02:00 +15°C° 0 mm 1 m/S 711 mmHg 94%
03:00 +15°C° 0 mm 1 m/S 711 mmHg 94%
04:00 +15°C° 0 mm 1 m/S 712 mmHg 95%
05:00 +15°C° 0 mm 1 m/S 712 mmHg 94%
06:00 +15°C° 0 mm 1 m/S 712 mmHg 93%
07:00 +15°C° 0 mm 2 m/S 713 mmHg 93%
08:00 +16°C° 0 mm 2 m/S 713 mmHg 89%
09:00 +17°C° 0 mm 2 m/S 713 mmHg 86%
10:00 +18°C° 0 mm 3 m/S 713 mmHg 82%
11:00 +18°C° 0 mm 3 m/S 713 mmHg 82%
12:00 +18°C° 0 mm 3 m/S 713 mmHg 82%
13:00 +17°C° 0 mm 3 m/S 713 mmHg 81%
14:00 +17°C° 0 mm 3 m/S 713 mmHg 81%
15:00 +17°C° 0 mm 3 m/S 713 mmHg 80%
16:00 +17°C° 0 mm 3 m/S 713 mmHg 79%
17:00 +16°C° 0 mm 3 m/S 713 mmHg 82%
18:00 +16°C° 0 mm 3 m/S 713 mmHg 85%
19:00 +15°C° 0 mm 2 m/S 713 mmHg 88%
20:00 +14°C° 0 mm 2 m/S 713 mmHg 90%
21:00 +14°C° 0 mm 2 m/S 713 mmHg 91%
22:00 +14°C° 0 mm 2 m/S 713 mmHg 93%
23:00 +14°C° 0 mm 2 m/S 713 mmHg 93%

25 Juni, Freitag

Zeit Temperatur Niederschläge Wind Luftdruck Luftfeuchtigkeit
00:00 +14°C° 0 mm 2 m/S 713 mmHg 93%
01:00 +14°C° 0 mm 2 m/S 713 mmHg 93%
02:00 +14°C° 0 mm 2 m/S 713 mmHg 93%
03:00 +13°C° 0 mm 1 m/S 713 mmHg 94%
04:00 +13°C° 0 mm 1 m/S 713 mmHg 95%
05:00 +15°C° 0 mm 1 m/S 713 mmHg 88%
06:00 +16°C° 0 mm 1 m/S 713 mmHg 81%
07:00 +18°C° 0 mm 1 m/S 713 mmHg 74%
08:00 +20°C° 0 mm 1 m/S 713 mmHg 68%
09:00 +22°C° 0 mm 1 m/S 713 mmHg 62%
10:00 +24°C° 0 mm 2 m/S 713 mmHg 56%
11:00 +25°C° 0 mm 2 m/S 713 mmHg 53%
12:00 +26°C° 0 mm 2 m/S 713 mmHg 51%
13:00 +26°C° 0 mm 3 m/S 712 mmHg 48%
14:00 +27°C° 0 mm 3 m/S 712 mmHg 47%
15:00 +27°C° 0 mm 2 m/S 712 mmHg 46%
16:00 +27°C° 0 mm 2 m/S 712 mmHg 46%
17:00 +25°C° 0 mm 2 m/S 712 mmHg 54%
18:00 +23°C° 0 mm 2 m/S 712 mmHg 62%
19:00 +21°C° 0 mm 1 m/S 712 mmHg 70%
20:00 +19°C° 0 mm 1 m/S 712 mmHg 75%
21:00 +18°C° 0 mm 1 m/S 712 mmHg 80%
22:00 +15°C° 0 mm 1 m/S 712 mmHg 85%
23:00 +15°C° 0 mm 1 m/S 712 mmHg 84%

26 Juni, Samstag

Zeit Temperatur Niederschläge Wind Luftdruck Luftfeuchtigkeit
00:00 +15°C° 0 mm 1 m/S 712 mmHg 84%
01:00 +15°C° 0 mm 1 m/S 712 mmHg 83%
02:00 +15°C° 0 mm 1 m/S 712 mmHg 82%
03:00 +15°C° 0 mm 1 m/S 712 mmHg 81%
04:00 +15°C° 0 mm 1 m/S 711 mmHg 81%
05:00 +18°C° 0 mm 1 m/S 711 mmHg 73%
06:00 +20°C° 0 mm 1 m/S 711 mmHg 65%
07:00 +23°C° 0 mm 1 m/S 712 mmHg 57%
08:00 +24°C° 0 mm 1 m/S 712 mmHg 52%
09:00 +26°C° 0 mm 2 m/S 712 mmHg 47%
10:00 +28°C° 0 mm 2 m/S 712 mmHg 42%
11:00 +27°C° 0 mm 3 m/S 712 mmHg 44%
12:00 +27°C° 0 mm 4 m/S 712 mmHg 47%
13:00 +26°C° 0 mm 5 m/S 713 mmHg 49%
14:00 +25°C° 0 mm 5 m/S 713 mmHg 51%
15:00 +25°C° 0 mm 5 m/S 713 mmHg 53%
16:00 +23°C° 0 mm 5 m/S 714 mmHg 55%
17:00 +21°C° 0 mm 5 m/S 714 mmHg 61%
18:00 +20°C° 0 mm 4 m/S 714 mmHg 68%
19:00 +18°C° 0 mm 3 m/S 714 mmHg 74%
20:00 +17°C° 0 mm 3 m/S 714 mmHg 79%
21:00 +14°C° 0 mm 3 m/S 715 mmHg 83%
22:00 +14°C° 0 mm 2 m/S 715 mmHg 88%
23:00 +13°C° 0 mm 2 m/S 715 mmHg 90%

27 Juni, Sonntag

Zeit Temperatur Niederschläge Wind Luftdruck Luftfeuchtigkeit
00:00 +13°C° 0 mm 2 m/S 715 mmHg 92%
01:00 +12°C° 0 mm 2 m/S 715 mmHg 94%
02:00 +12°C° 0 mm 1 m/S 715 mmHg 94%
03:00 +12°C° 0 mm 1 m/S 715 mmHg 94%
04:00 +12°C° 0 mm 1 m/S 715 mmHg 94%
05:00 +14°C° 0 mm 2 m/S 715 mmHg 85%
06:00 +15°C° 0 mm 2 m/S 715 mmHg 76%
07:00 +17°C° 0 mm 2 m/S 715 mmHg 67%
08:00 +18°C° 0 mm 2 m/S 714 mmHg 64%
09:00 +19°C° 0 mm 2 m/S 714 mmHg 61%
10:00 +20°C° 0 mm 2 m/S 714 mmHg 57%
11:00 +21°C° 0 mm 3 m/S 713 mmHg 56%
12:00 +22°C° 0 mm 3 m/S 713 mmHg 54%
13:00 +24°C° 0 mm 3 m/S 713 mmHg 52%
14:00 +24°C° 0 mm 3 m/S 712 mmHg 53%
15:00 +24°C° 0 mm 3 m/S 711 mmHg 53%
16:00 +24°C° 0 mm 3 m/S 710 mmHg 54%
17:00 +21°C° 0.3 mm 3 m/S 710 mmHg 66%
18:00 +19°C° 0.3 mm 3 m/S 709 mmHg 79%
19:00 +16°C° 0.3 mm 2 m/S 709 mmHg 91%
20:00 +15°C° 1.4 mm 2 m/S 709 mmHg 94%
21:00 +15°C° 1.4 mm 2 m/S 710 mmHg 96%
22:00 +14°C° 1.4 mm 1 m/S 710 mmHg 98%
23:00 +14°C° 0.1 mm 2 m/S 710 mmHg 98%
Mehr zeigen

Wir brauchen deine Erlaubnis

Meteoprog und unser Service Anbieter werden persönliche Daten aufbewahren, so wie Cookies, Geräte Bezeichnung oder ähnliche Technologien von deinem Gerät und Prozess, so wie Persönliche Daten Inhalte und Werbungen, genauso wie social Media und den Verkehr zu analysieren.

  • Aufbewahrung und/oder Zugang zu deiner Geräte Informationen.

    Cookies, Geräte Bezeichnung oder andere Informationen, können aufbewahrt oder Zugang zu deinem Gerät erhalten, für den Grund, der oben angegeben wird.

  • Personalisierte Werbung und Inhalte, Messungen, Einblick in das Publikum und Produkt Entwicklung.

    Werbungen und Inhalte können personalisiert werden, basierend auf ein Profil. Mehr Daten können besser personalisierte Werbungen und Inhalte hinzufügen. Werbung und Inhalte können gezeigt und gemessen werden. Einblicke über das Publikum, welche die Werbung gesehen haben und den Inhalt, können abgeleitet werden. So wie Daten können genutzt werden, um es zu verbessern oder die Benutzer Erfahrung zu verbessern das System und die Software.

Wenn du “Ich stimme zu” klickst, erlaubst du uns, die Cookies zu benutzen die Geräte Bezeichnung, den Web oder ähnliche Technologien zu benutzen. Deine Settings, können in deinem Gerät bei deinem Browser geändert werden.

Für den bestimmten Zweck, berechtigten Interessen beruhen darauf, mehr als auf den Inhalt. Du kannst mehr darüber in unseren Privaten und Cookie Politik lesen.